Simultaneous Nadir Overpasses (SNOs) Predictions

Prediction of SNOs between GOES-15 and NOAA-20 Satellite Orbit:

Table of predicted SNOs for the next 14.0 days since TLE Epoch: 11/6/2021
Index Date Time (GOES-15) GOES-15 Lat,Lon NOAA-20 Lat,Lon Distance(km) Time Diff (sec)
1 11/06/2021 21:58:35 -0.15,-128.45 -0.07,-128.19 30.75 80
2 11/09/2021 09:58:57 0.13,-128.46 0.22,-128.92 52.69 80
3 11/10/2021 09:42:51 0.15,-128.45 -0.78,-124.38 464.10 80
4 11/11/2021 22:02:06 -0.11,-128.44 -0.40,-129.68 141.53 80
5 11/12/2021 21:46:01 -0.13,-128.44 0.61,-125.15 375.33 80
6 11/14/2021 10:05:08 0.09,-128.44 0.54,-130.42 225.15 80
7 11/15/2021 09:49:03 0.11,-128.44 -0.46,-125.88 291.68 80
8 11/16/2021 22:08:18 -0.08,-128.43 -0.71,-131.18 314.08 80
9 11/17/2021 21:52:13 -0.10,-128.43 0.30,-126.65 202.58 80
10 11/19/2021 10:11:20 0.07,-128.42 0.85,-131.92 398.47 80
